Location: Krakow
(50.0830°N, 19.9170°E)
Time: 18:07:39
(UTC+01:00)

Tiros 1 despin weight - Visible Passes

Search period start: 14 March 2026 00:00
Search period end: 24 March 2026 00:00
Orbit: 556 x 593 km, 48.2° (Epoch: 13 March)

Date Brightness Start Highest point End Pass type
(mag) Time Alt. Az. Time Alt. Az. Time Alt. Az.
14 Mar ? 04:08:50 10° SSE 04:09:43 10° SE 04:10:34 10° SE visible
15 Mar ? 04:09:06 10° S 04:11:40 15° SE 04:14:12 10° ESE visible
16 Mar ? 04:10:41 11° S 04:13:39 21° SE 04:16:56 10° E visible
17 Mar ? 04:12:58 15° SSW 04:15:40 28° SSE 04:19:24 10° E visible
18 Mar ? 02:39:00 10° SE 02:39:00 10° SE 02:39:07 10° ESE visible
18 Mar ? 04:15:08 19° SSW 04:17:43 35° SSE 04:21:44 10° E visible
19 Mar ? 02:41:06 14° ESE 02:41:06 14° ESE 02:42:34 10° ESE visible
19 Mar ? 04:17:14 21° SW 04:19:48 44° SSE 04:23:58 10° E visible
20 Mar ? 02:43:08 19° ESE 02:43:08 19° ESE 02:45:13 10° E visible
20 Mar ? 04:19:16 22° SW 04:21:54 53° SSE 04:26:10 10° E visible
21 Mar ? 02:45:07 24° ESE 02:45:07 24° ESE 02:47:38 10° E visible
21 Mar ? 04:21:15 21° WSW 04:24:01 62° S 04:28:21 10° E visible
22 Mar ? 02:47:04 30° ESE 02:47:04 30° ESE 02:49:55 10° E visible
22 Mar ? 04:23:12 20° WSW 04:26:09 67° S 04:30:30 10° E visible
23 Mar ? 02:48:58 37° ESE 02:48:58 37° ESE 02:52:07 10° E visible
23 Mar ? 04:25:06 18° W 04:28:17 70° S 04:32:38 10° E visible
